Regional Weather Roundup
Issued by NWS

Home | Current Version | Previous Version | Text Only | Print | Product List | Glossary On
Versions: 1 2 3 4 5 6 7 8 9 10 11 12 13 14 15 16 17 18 19 20 21 22 23 24 25 26 27 28 29 30 31 32 33 34 35 36 37 38 39 40 41 42 43 44 45 46 47 48 49 50
000
ASUS44 KFWD 040015
RWRTX
NORTH TEXAS HOURLY WEATHER ROUNDUP
NATIONAL WEATHER SERVICE FORT WORTH TX
600 PM CST TUE MAR 03 2015

NOTE: "FAIR" INDICATES FEW OR NO CLOUDS BELOW 12,000 FEET WITH NO
SIGNIFICANT WEATHER AND/OR OBSTRUCTIONS TO VISIBILITY.

TXZ118-119-040100-
DALLAS/FORT WORTH METROPLEX

CITY           SKY/WX    TMP DP  RH WIND       PRES   REMARKS
DFW AIRPORT    DRIZZLE   52  51  97 S10       29.83R FOG
6HR MIN TEMP:  46; 6HR MAX TEMP:  52; 6HR PCP: TRACE;

DALLAS LOVE    DRIZZLE   52  51  97 S6        29.84R FOG
6HR MIN TEMP:  48; 6HR MAX TEMP:  53; 6HR PCP:  0.03;

FTW MEACHAM    CLOUDY    54  52  93 S6        29.83R FOG
6HR MIN TEMP:  51; 6HR MAX TEMP:  55;

DAL-EXECUTIVE  CLOUDY    52  52 100 S5        29.83R FOG
6HR MIN TEMP:  49; 6HR MAX TEMP:  52; 6HR PCP:  0.06;

FTW-ALLIANCE   CLOUDY    52  51  97 S7        29.83R FOG
6HR MIN TEMP:  50; 6HR MAX TEMP:  53; 6HR PCP: TRACE;

FTW-SPINKS     FOG       52  52 100 SE6       29.84S VSB 1
ARLINGTON      CLOUDY    53  50  89 S7        29.84R FOG
6HR MIN TEMP:  49; 6HR MAX TEMP:  53; 6HR PCP:  0.01;

MESQUITE       CLOUDY    50  48  93 SE3       29.85S FOG
LANCASTER      CLOUDY    50  49  95 CALM      29.85S FOG
6HR MIN TEMP:  46; 6HR MAX TEMP:  50; 6HR PCP:  0.04;

$$

TXZ091>094-102>105-117-120-121-131>134-040100-
NORTH CENTRAL TEXAS

CITY           SKY/WX    TMP DP  RH WIND       PRES   REMARKS
SHRMAN/DENISON FOG       49  49 100 E6        29.84S VSB 1
6HR MIN TEMP:  47; 6HR MAX TEMP:  51;

GAINESVILLE    CLOUDY    48  47  97 CALM      29.85S FOG
6HR MIN TEMP:  46; 6HR MAX TEMP:  50;

BOWIE          CLOUDY    52  50  93 E3        29.80F FOG
6HR MIN TEMP:  44; 6HR MAX TEMP:  54;

BRIDGEPORT     CLOUDY    54  54 100 CALM      29.83S
6HR MIN TEMP:  47; 6HR MAX TEMP:  55;

DECATUR        CLOUDY    53  52  97 SE6       29.82S FOG
6HR MIN TEMP:  48; 6HR MAX TEMP:  55;

DENTON         CLOUDY    51  50  96 S5        29.82S FOG
6HR MIN TEMP:  48; 6HR MAX TEMP:  51;

MCKINNEY       FOG       49  49 100 S5        29.84R VSB 3/4
6HR MIN TEMP:  46; 6HR MAX TEMP:  50; 6HR PCP:  0.05;

GREENVILLE     LGT RAIN  48  46  93 CALM      29.85R
TERRELL        CLOUDY    52  50  93 CALM      29.84S FOG
6HR MIN TEMP:  51; 6HR MAX TEMP:  52; 6HR PCP:  0.07;

WAXAHACHIE     FOG       52  52 100 S6        29.85R VSB 1/2
6HR MIN TEMP:  47; 6HR MAX TEMP:  52; 6HR PCP:  0.03;

CLEBURNE       FOG       50  50 100 S7        29.85R VSB<1/4
GRANBURY       CLOUDY    53  51  94 E3        29.84S FOG
6HR MIN TEMP:  53; 6HR MAX TEMP:  55; 6HR PCP:  0.03;

$$

TXZ083>090-098>101-113>116-127>130-139>142-154-155-040100-
WESTERN NORTH TEXAS

CITY           SKY/WX    TMP DP  RH WIND       PRES   REMARKS
WICHITA FALLS  CLOUDY    57  49  74 E3        29.82R
6HR MIN TEMP:  49; 6HR MAX TEMP:  60;

WF-KICKAPOO    CLOUDY    59  50  72 CALM      29.83R
6HR MIN TEMP:  50; 6HR MAX TEMP:  61;

VERNON         CLOUDY    59  44  57 NE6       29.82R
6HR MIN TEMP:  32; 6HR MAX TEMP:  60;

ABILENE        CLOUDY    55  49  80 S3        29.82R
6HR MIN TEMP:  54; 6HR MAX TEMP:  58;

ABILENE-DYESS  CLOUDY    56  48  75 N2        29.79S
6HR MIN TEMP:  55; 6HR MAX TEMP:  58;

BRECKENRIDGE   MOCLDY    61  50  68 SW6       29.80R HAZE
6HR MIN TEMP:  58; 6HR MAX TEMP:  63;

GRAHAM         CLOUDY    58  54  85 SE3       29.80R
6HR MIN TEMP:  51; 6HR MAX TEMP:  60;

MINERAL WELLS  CLOUDY    53  51  93 SE10      29.80S FOG
6HR MIN TEMP:  51; 6HR MAX TEMP:  56;

STEPHENVILLE   CLOUDY    56  53  88 S3        29.84S
6HR MIN TEMP:  54; 6HR MAX TEMP:  57; 6HR PCP:  0.04;

COMANCHE       MOCLDY    63  58  81 E5        29.81S
6HR MIN TEMP:  53; 6HR MAX TEMP:  64;

BROWNWOOD      CLEAR     63  54  72 N5        29.81R
COLEMAN        PTCLDY    64  56  77 SE7       29.80R
6HR MIN TEMP:  52; 6HR MAX TEMP:  69;

BRADY          CLEAR     70  55  60 SE7       29.79S
$$

TXZ143>147-156>162-174-175-040100-
CENTRAL TEXAS

CITY           SKY/WX    TMP DP  RH WIND       PRES   REMARKS
WACO           FOG       51  50  96 CALM      29.84S VSB 1/4
6HR MIN TEMP:  45; 6HR MAX TEMP:  51; 6HR PCP:  0.02;

WACO-MCGREGOR  CLOUDY    55  52  88 S7        29.84F
6HR MIN TEMP:  46; 6HR MAX TEMP:  55;

HILLSBORO      FOG       53  52  97 S7        29.84S VSB 1/4
6HR MIN TEMP:  46; 6HR MAX TEMP:  53;

CORSICANA      FOG       52  50  93 CALM      29.85S VSB 1/4
6HR MIN TEMP:  51; 6HR MAX TEMP:  53; 6HR PCP:  0.01;

MEXIA          FOG       58  58  99 SW7       29.83F VSB 1
6HR MIN TEMP:  52; 6HR MAX TEMP:  59; 6HR PCP:  0.01;

HEARNE         CLOUDY    60  57  91 CALM      29.84F FOG
6HR MIN TEMP:  55; 6HR MAX TEMP:  63;

CAMERON        CLOUDY    57  57  98 S5        29.84S FOG
6HR MIN TEMP:  49; 6HR MAX TEMP:  57;

TEMPLE         CLOUDY    57  54  88 S9        29.83R
6HR MIN TEMP:  46; 6HR MAX TEMP:  57;

KILLEEN        CLOUDY    60  60  99 S10       29.81S FOG
6HR MIN TEMP:  47; 6HR MAX TEMP:  60;

KILLEEN-SKYLRK CLOUDY    61  55  82 S8        29.79S
6HR MIN TEMP:  48; 6HR MAX TEMP:  61;

FORT HOOD      CLOUDY    59  59 100 SE8       29.81S
GATESVILLE     FOG       55  55 100 SE3       29.84S VSB 3/4
HAMILTON       FOG       54  54 100 E12       29.84R VSB 1/4
6HR MIN TEMP:  51; 6HR MAX TEMP:  55;

LAMPASAS       CLOUDY    64  60  86 S5        29.81R
6HR MIN TEMP:  50; 6HR MAX TEMP:  64;

$$

TXZ095>097-106>112-122>126-135>138-148>153-164>167-040100-
EAST TEXAS

CITY           SKY/WX    TMP DP  RH WIND       PRES   REMARKS
PARIS          CLOUDY    45  43  93 NE6       29.85F
6HR MIN TEMP:  45; 6HR MAX TEMP:  46; 6HR PCP:  0.18;

SULPHUR SPRNGS CLOUDY    49  49 100 CALM      29.86S
6HR MIN TEMP:  49; 6HR MAX TEMP:  55; 6HR PCP:  0.08;

MOUNT PLEASANT CLOUDY    61  59  95 NW16      29.86R
6HR MIN TEMP:  57; 6HR MAX TEMP:  65;

GILMER         HVY RAIN  66  63  91 SE8       29.83S
6HR MIN TEMP:  59; 6HR MAX TEMP:  70;

MINEOLA        MOCLDY    63  63 100 CALM      29.84S FOG
TYLER          LGT RAIN  66  63  90 S6        29.83S
6HR MIN TEMP:  64; 6HR MAX TEMP:  70; 6HR PCP: TRACE;

LONGVIEW       CLOUDY    67  62  84 SE8       29.84S
6HR MIN TEMP:  59; 6HR MAX TEMP:  73;

MARSHALL       MOCLDY    69  64  85 S3        29.88S
6HR MIN TEMP:  58; 6HR MAX TEMP:  76;

ATHENS         CLOUDY    64  63  94 CALM      29.82S
PALESTINE      CLOUDY    69  66  90 CALM      29.84S
JACKSONVILLE   CLOUDY    69  64  85 S8        29.86S
HENDERSON      CLOUDY    68  63  84 SE6       29.85S
NACOGDOCHES    MOCLDY    70  63  78 S6        29.87R
6HR MIN TEMP:  63; 6HR MAX TEMP:  72;

LUFKIN         MOCLDY    75  63  66 S10       29.86R
6HR MIN TEMP:  67; 6HR MAX TEMP:  77;

$$

SUPPLEMENTAL OBSERVATIONS (CENTRAL)

CITY           SKY/WX    TMP DP  RH WIND       PRES   REMARKS
$$

SUPPLEMENTAL OBSERVATIONS (WEST)

CITY           SKY/WX    TMP DP  RH WIND       PRES   REMARKS
$$

SUPPLEMENTAL OBSERVATIONS (EAST)

CITY           SKY/WX    TMP DP  RH WIND       PRES   REMARKS
$$

SUPPLEMENTAL OBSERVATIONS ARE A COLLECTION OF AUTOMATED INSTRUMENTS
THAT ARE MAINTAINED BY A VARIETY OF FEDERAL AND STATE AGENCIES.
CERTAIN ELEMENTS...SUCH AS HUMIDITY VALUES AND SUSTAINED WIND
SPEEDS...MAY BE APPROXIMATED.



USA.gov is the U.S. government's official web portal to all federal, state and local government web resources and services.